Retour au catalogue

STARLINK-35822

ActifCommunicationsVLEO
NORAD 66362·PAYLOAD·🇺🇸 United States

Lancé Nov 6, 2025 depuis Vandenberg Space Force Base

Loading…

Prochains Passages (prochaines 24 heures)

TLE

FraisSource: CelesTrak SupGP

Époque: Sep 14, 2026, 22:47 UTC

1 66362C 25254Q   26257.94979167  .00055704  00000+0  16458-2 0  2578
2 66362  53.1572  71.4506 0001085  65.6419 133.9118 15.34363420    14

Suivez STARLINK-35822 en temps réel avec AllMySat

Download on the App Store